sat.trackr.live / text

‹ back to catalog

STARLINK-33791

NORAD 63594 · 2025-076AB

PAYLOAD ACTIVE UNKNOWN

§ Identity

Operator
Country
US
Launch date
2025-04-14
Launch site
AFETR
Launch vehicle
Mass (kg)
RCS (m²)

Purposes: comms

External: N2YO · Heavens-Above · Gunter

§ Orbital elements

Epoch: 2026-09-20T10:43:22.155744Z

Period
94.27 min
Inclination
43.0013°
Eccentricity
0.0001249
Mean motion
15.27590069 rev/d
Perigee alt
482.2 km
Apogee alt
483.9 km
Semi-major
6,861.2 km
B*
4.4993e-4
RAAN
302.0059°
Arg perigee
254.0907°
Mean anomaly
105.9807°
Rev number
8,161

§ Raw data

STARLINK-337911 63594U 25076AB  26263.44678421  .00012143  00000+0  44993-3 0  99942 63594  43.0013 302.0059 0001249 254.0907 105.9807 15.27590069 81612

JSON: /api/v1/satellites/63594 · /tle

For live sub-satellite position, see the globe view (requires WebGL).

§ Visibility from observer

Set your observer location to see the next 7 days of passes ≥ 10°. The values pass through the URL so the page stays shareable.

No JS? Fill the form by hand. The geolocation button needs JavaScript.